Other Public Products
Issued by NWS Grand Forks, ND

Home | Current Version | Previous Version | Text Only | Print | Product List | Glossary Off
Versions: 1 2 3 4 5 6 7 8 9 10 11 12 13 14 15 16 17 18 19 20 21 22 23 24 25 26 27 28 29 30 31 32 33 34 35 36 37 38 39 40 41 42 43 44 45 46 47 48 49 50

000
FPUS83 KFGF 160731
OPUFGF
PRAIRIE TO PINES WEATHER ROUNDUP
NATIONAL WEATHER SERVICE EASTERN NORTH DAKOTA/GRAND FORKS ND
200 AM CDT WED APR 16 2014

 **SATELLITE DATA USED TO AUGMENT SKY COVER AT AUTOMATED STATIONS**
 *****  WEATHER ACROSS EASTERN NORTH DAKOTA  *****

CITY           SKY/WX    TMP DP  RH WIND       PRES   REMARKS
GRAND FORKS    CLOUDY    29  12  49 E15       29.97S WCI  18
GRAND FORKS AF CLOUDY    29  13  51 E13       30.01R WCI  18
GRAND CITY NWS   N/A     30 N/A N/A E9          N/A  WCI  22
BUXTON           N/A     30  21  69 E6          N/A  WCI  24
DEVILS LAKE    CLOUDY    27  14  59 E17G24    29.95S WCI  14
FARGO          LGT SNOW  29  23  78 E17       29.96F WCI  17
WAHPETON ARPT  CLOUDY    30  23  74 E17G24    29.92S WCI  18
$$

 *****  WEATHER ACROSS CENTRAL AND WESTERN NORTH DAKOTA  *****

CITY           SKY/WX    TMP DP  RH WIND       PRES   REMARKS
JAMESTOWN      CLOUDY    27  24  89 E21       29.85F WCI  13
BISMARCK       CLOUDY    30  16  56 E21G30    29.78R WCI  17
MINOT          LGT SNOW  24  20  84 E14G22    29.90R FOG     WCI  12
MINOT AFB      LGT SNOW  25  23  93 E17       29.91R FOG     WCI  11
GARRISON         N/A     27  21  78 E18G29    29.82R WCI  14
WILLISTON        N/A    N/A N/A N/A MISG      29.83R
DICKINSON      CLOUDY    28  18  66 NE14      29.70R WCI  17
HETTINGER      CLOUDY    33  23  66 E9        29.66R
$$

 *****  OTHER OBSERVATIONS NORTHEAST NORTH DAKOTA  *****

CITY           SKY/WX    TMP DP  RH WIND       PRES   REMARKS
WALHALLA       FAIR      27  16  63 E9        30.07R WCI  17
LANGDON        CLOUDY    25  14  63 E13G22    30.00R WCI  13
CAVALIER       FAIR      27  14  59 E10       30.06R WCI  17
GRAFTON        PTSUNNY   27  16  63 E12       30.04S WCI  16
CANDO          LGT SNOW  25  21  86 E16G22    29.98R WCI  12
FORT TOTTEN      N/A     24  20  84 E10       29.95  WCI  14
ROLLA          LGT SNOW  23  21  93 E16       29.99R WCI  10
RUGBY          PTSUNNY   25  23  93 E18G26    29.93R FOG     WCI  11
 ***** THE ABOVE OBSERVATIONS ARE NON NWS ARE NOT QUALITY
        CONTROLLED AND MAY MIS-REPORT RAIN FOR SNOW...
$$

 *****  OTHER OBSERVATIONS SOUTHEAST NORTH DAKOTA *****

CITY           SKY/WX    TMP DP  RH WIND       PRES   REMARKS
COOPERSTOWN    LGT SNOW  25  25 100 E16       29.93S WCI  12
VALLEY CITY    NOT AVBL
OAKES          FAIR      32  16  51 E24       29.82R WCI  19
GWINNER        SUNNY     32  18  55 E20G25    29.85S WCI  20
SHEYENNE NWR     N/A     31  23  73 E17       29.95  WCI  19
BUFFALO          N/A     27  24  90 E14         N/A  WCI  15
WYNDMERE       NOT AVBL
 ***** THE ABOVE OBSERVATIONS ARE NON NWS ARE NOT QUALITY
       CONTROLLED AND MAY MIS-REPORT RAIN FOR SNOW...
$$

  *****  WEATHER ACROSS NORTHERN MINNESOTA  *****

CITY           SKY/WX    TMP DP  RH WIND       PRES   REMARKS
FLAG ISLAND    PTCLDY    12   9  85 CALM      30.11S
WARROAD        PTCLDY    18   9  68 E8        30.10S WCI   7
ROSEAU         PTCLDY    23  10  58 E8        30.09R WCI  14
HALLOCK        CLOUDY    27  12  54 E14       30.06S WCI  15
THF RVR FALLS  CLOUDY    25   9  50 E12       30.04R WCI  14
HALSTAD          N/A     31  16  52 SE17        N/A  WCI  20
FOSSTON        CLOUDY    27   9  46 E8        30.01S WCI  18
BAUDETTE       PTCLDY    19   6  57 E7        30.10R WCI  10
WASKISH        PTCLDY    21   9  58 E8        30.08R WCI  12
CROOKSTON      CLOUDY    28  10  47 E10G17    30.03R WCI  19
$$
  *****  WEATHER ACROSS CENTRAL AND WEST MINNESOTA  *****

CITY           SKY/WX    TMP DP  RH WIND       PRES   REMARKS
BEMIDJI        CLOUDY    26   3  38 E9        30.02S WCI  16
PARK RAPIDS    CLOUDY    28   6  39 E8        30.00S WCI  20
WADENA         LGT SNOW  27  19  74 SE10G21   29.99S WCI  17
DETROIT LAKES  CLOUDY    30  16  55 SE18G24   29.97F WCI  18
MOORHEAD       CLOUDY    30  27  86 E12       29.97S WCI  21
FERGUS FALLS   LGT SNOW  27  23  86 E13G18    29.92F WCI  16
ELBOW LAKE     CLOUDY    28  24  84 E20G26    29.92S WCI  15
MORRIS MN      CLOUDY    30  21  69 E29G38    29.86F WCI  15
STAPLES        CLOUDY    28  14  54 E7        30.01F WCI  21
WHEATON        CLOUDY    34  23  64 E22       29.90F WCI  22
$$
  *****  WEATHER ELSEWHERE ACROSS MINNESOTA  *****

CITY           SKY/WX    TMP DP  RH WIND       PRES   REMARKS
DULUTH         PTCLDY    23   8  52 E5        30.08S WCI  17
INTRNTL FALLS  CLEAR     16  10  77 NE3       30.11R
ELY            CLEAR      9   7  92 CALM      30.10S
CLOQUET        MOCLDY    25   5  42 CALM      30.08S
BRAINERD       CLOUDY    33   2  26 E5        30.04S
HIBBING        PTCLDY    22   7  52 CALM      30.08S
ALEXANDRIA     LGT SNOW  27  21  80 E17       29.94F WCI  14
SAINT CLOUD    CLOUDY    31  19  61 E9        30.03S WCI  23
MINNEAPOLIS    CLOUDY    34  16  47 E14       30.05S WCI  25
$$

  *****  WEATHER ACROSS SOUTH DAKOTA  *****

CITY           SKY/WX    TMP DP  RH WIND       PRES   REMARKS
SIOUX FALLS    CLOUDY    41  27  57 SE16      29.69F
BROOKINGS      NOT AVBL
WATERTOWN      CLOUDY    32  21  64 E20G29    29.73F WCI  20
HURON          CLOUDY    41  26  55 SE22G32   29.60F
SISSETON         N/A     32  15  49 SE18      29.85F WCI  20
ABERDEEN       CLOUDY    32  20  61 E18       29.74F WCI  20
MITCHELL       CLOUDY    42  29  59 SE16      29.60F
PIERRE         CLOUDY    40  28  62 NE25      29.51F
MOBRIDGE       CLOUDY    34  19  54 E28G36    29.64R WCI  21
RAPID CITY     CLOUDY    41  38  89 NW18G26   29.60S
$$

  *****  SOME WEATHER IN NEARBY STATES *****

CITY           SKY/WX    TMP DP  RH WIND       PRES   REMARKS
GLASGOW MT     PTCLDY    31  20  63 NE17      29.78R WCI  19
GREAT FALLS MT CLOUDY    36  36 100 SW5       29.87S
CHEYENNE WY    MOCLDY    37  31  78 W21G29    29.73R
SCOTTSBLUFF NE CLOUDY    54  27  35 W28G51    29.59F
OMAHA NE       CLOUDY    48  29  47 S23G33    29.81F
DES MOINES IA  PTCLDY    40  27  59 SE14      29.95F
DAVENPORT IA   CLEAR     30  19  63 SE10      30.14F WCI  21
CHICAGO IL     CLEAR     29  19  66 S6        30.22R WCI  23
EAU CLAIRE WI  CLOUDY    31  13  47 SE6       30.11S
LA CROSSE WI   CLOUDY    32  19  58 E8        30.11F WCI  25
$$

  *****  SOME NATIONAL WEATHER *****

CITY           SKY/WX    TMP DP  RH WIND       PRES   REMARKS
LA GUARDIA NY  CLOUDY    36  26  67 NW20      29.95R
RALEIGH NC     PTCLDY    37  25  61 N6        30.11R
ATLANTA GA     CLEAR     36  27  69 N7        30.13R
NEW ORLEANS LA CLEAR     50  36  58 NE16      30.17S
OKLAHOMA CITY  MOCLDY    48  24  39 S13       30.00F
ALBUQUERQUE NM MOCLDY    53   8  16 S15       29.92S
SALT LAKE CITY CLOUDY    50  20  30 N5        29.94S
LOS ANGELES CA CLOUDY    59  55  87 CALM      29.88S
BOISE ID       PTCLDY    41  17  38 W7        30.01R
SEATTLE WA     CLOUDY    50  27  40 S7        30.09F
$$

*** WEATHER ACROSS MANITOBA...SASKATCHEWAN AND ONTARIO ***
                ***ONTARIO***

CITY           SKY/WX    TMP DP  RH WIND       PRES   REMARKS
GERALDTON      CLEAR      5  -6  61 W2        30.10R
THUNDER BAY    CLEAR     10   7  85 W3        30.18S
SIOUX LOOKOUT  CLEAR      1  -2  85 S2        30.12R
TORONTO        CLEAR     21  10  63 NW17      30.22R WCI   7
BIG TROUT LK   CLEAR     -6 -11  77 NW6       30.14R WCI -18
PICKLE LAKE    NOT AVBL
DRYDEN         CLEAR     14   1  57 S6        30.11S WCI   5
KENORA         NOT AVBL
$$
                *** MANITOBA***

CITY           SKY/WX    TMP DP  RH WIND       PRES   REMARKS
BRANDON        CLOUDY    19  12  73 E18G24    30.08R WCI   4
DAUPHIN        CLEAR     19  10  68 E8        30.16R WCI   9
ISLAND LAKE    CLEAR      7   0  72 N3        30.23R
PILOT MOUND      N/A     21  14  73 E15G21      N/A  WCI   8
THE PAS        CLEAR      3  -8  60 E2        30.24R
THOMPSON       CLEAR      0  -9  65 N9        30.30R WCI -16
WINNIPEG       CLOUDY    19   1  45 NE10      30.14R WCI   8
LYNN LAKE      CLEAR      1  -6  71 N6        30.32R WCI -10
CHURCHILL      CRYSTALS   0  -4  85 N17G24    30.28S DRFTSNOWWCI -21
GILLAM         PTCLDY    -4 -11  71 N7        30.29R WCI -18
$$
                ***SASKATCHEWAN***

CITY           SKY/WX    TMP DP  RH WIND       PRES   REMARKS
ESTEVAN        FLURRIES  25  21  86 E21G28    29.92  WCI  10
KINDERSLEY     FLURRIES  25  23  93 NE14      29.96R WCI  13
LLOYDMINSTER   PTCLDY    19  19 100 NE5       30.04R FOG     WCI  13
PRINCE ALBERT  PTCLDY    18   7  62 E10       30.13R WCI   6
REGINA         FLURRIES  23  19  86 E20       29.96R WCI   8



USA.gov is the U.S. government's official web portal to all federal, state and local government web resources and services.